QPF
0.00 0.00 0.00 0.00 0.00 0.01 0.01 0.01 0.02 0.02 0.02 0.01 0.01 0.00 0.00 0.00 0.00 0.01 0.01 0.01 0.02 0.03 0.04 0.03 0.03 0.04 0.05 0.08 0.05 0.03 0.03 0.02 0.04 0.04 0.05 0.05 0.05 0.06 0.10 0.12 0.13 0.09 0.08
0.00 0.00 0.00 0.00 0.00 0.01 0.01 0.01 0.01 0.02 0.02 0.01 0.01 0.01 0.00 0.00 0.01 0.01 0.01 0.02 0.02 0.03 0.03 0.02 0.02 0.03 0.05 0.06 0.05 0.04 0.02 0.03 0.06 0.06 0.08 0.09 0.05 0.06 0.11 0.17 0.15 0.08 0.07
0.00 0.00 0.00 0.00 0.00 0.00 0.01 0.01 0.01 0.02 0.02 0.01 0.01 0.01 0.00 0.01 0.01 0.01 0.02 0.03 0.02 0.03 0.02 0.02 0.02 0.04 0.05 0.05 0.05 0.04 0.03 0.03 0.06 0.11 0.16 0.11 0.04 0.06 0.09 0.14 0.10 0.06 0.05
0.00 0.00 0.00 0.00 0.00 0.00 0.01 0.01 0.01 0.01 0.01 0.01 0.01 0.01 0.01 0.01 0.02 0.02 0.03 0.03 0.02 0.03 0.03 0.04 0.06 0.04 0.04 0.03 0.04 0.04 0.05 0.06 0.07 0.16 0.16 0.09 0.05 0.05 0.08 0.08 0.05 0.05 0.05
0.00 0.00 0.00 0.00 0.00 0.00 0.00 0.01 0.01 0.01 0.01 0.01 0.01 0.01 0.01 0.01 0.02 0.02 0.03 0.03 0.03 0.04 0.04 0.05 0.05 0.03 0.03 0.02 0.02 0.02 0.03 0.05 0.10 0.19 0.15 0.10 0.07 0.06 0.06 0.05 0.03 0.04 0.04
0.00 0.00 0.00 0.00 0.00 0.00 0.00 0.00 0.00 0.01 0.01 0.01 0.01 0.01 0.01 0.01 0.01 0.02 0.02 0.02 0.04 0.05 0.04 0.04 0.03 0.03 0.03 0.02 0.02 0.03 0.04 0.08 0.15 0.13 0.09 0.10 0.07 0.05 0.04 0.05 0.04 0.05 0.05
0.00 0.00 0.00 0.00 0.00 0.00 0.00 0.00 0.01 0.01 0.01 0.01 0.01 0.01 0.02 0.01 0.02 0.01 0.02 0.02 0.03 0.04 0.03 0.02 0.02 0.02 0.03 0.02 0.02 0.02 0.03 0.06 0.10 0.06 0.07 0.10 0.05 0.04 0.03 0.04 0.05 0.06 0.05
0.00 0.00 0.00 0.00 0.00 0.00 0.00 0.01 0.01 0.01 0.01 0.00 0.01 0.01 0.02 0.02 0.01 0.01 0.01 0.02 0.03 0.03 0.04 0.03 0.02 0.02 0.02 0.02 0.01 0.01 0.01 0.04 0.04 0.03 0.05 0.05 0.03 0.04 0.03 0.03 0.04 0.05 0.05
0.02 0.02 0.00 0.00 0.00 0.00 0.00 0.00 0.01 0.01 0.01 0.01 0.01 0.01 0.01 0.01 0.01 0.01 0.02 0.02 0.02 0.02 0.02 0.03 0.02 0.01 0.01 0.01 0.01 0.01 0.01 0.03 0.04 0.03 0.03 0.02 0.01 0.03 0.03 0.02 0.02 0.03 0.03
0.04 0.02 0.02 0.02 0.01 0.01 0.01 0.00 0.01 0.01 0.01 0.01 0.01 0.01 0.01 0.01 0.01 0.02 0.03 0.02 0.01 0.01 0.01 0.01 0.01 0.00 0.01 0.01 0.01 0.00 0.01 0.02 0.04 0.04 0.03 0.01 0.01 0.02 0.03 0.02 0.03 0.04 0.03
0.07 0.04 0.04 0.04 0.04 0.03 0.02 0.01 0.01 0.01 0.01 0.01 0.01 0.01 0.02 0.07 0.04 0.04 0.03 0.02 0.01 0.01 0.01 0.01 0.01 0.01 0.01 0.01 0.01 0.00 0.02 0.04 0.04 0.04 0.02 0.01 0.01 0.02 0.03 0.03 0.03 0.03 0.03
0.06 0.06 0.06 0.05 0.05 0.04 0.04 0.02 0.02 0.02 0.01 0.03 0.04 0.03 0.09 0.13 0.14 0.08 0.03 0.02 0.01 0.01 0.01 0.01 0.02 0.03 0.04 0.04 0.01 0.02 0.05 0.05 0.04 0.03 0.02 0.01 0.01 0.01 0.02 0.02 0.02 0.03 0.03
0.05 0.05 0.09 0.11 0.08 0.08 0.09 0.07 0.04 0.04 0.04 0.07 0.08 0.07 0.09 0.08 0.08 0.07 0.05 0.03 0.03 0.03 0.04 0.02 0.04 0.08 0.08 0.06 0.05 0.07 0.07 0.05 0.03 0.05 0.03 0.01 0.01 0.01 0.01 0.01 0.03 0.03 0.04
0.06 0.10 0.14 0.16 0.12 0.13 0.13 0.11 0.07 0.05 0.04 0.07 0.08 0.06 0.06 0.08 0.09 0.10 0.09 0.07 0.07 0.08 0.08 0.05 0.08 0.09 0.07 0.02 0.02 0.05 0.04 0.03 0.04 0.06 0.04 0.02 0.01 0.02 0.02 0.01 0.02 0.03 0.03
0.07 0.12 0.15 0.19 0.18 0.13 0.14 0.12 0.08 0.06 0.05 0.05 0.06 0.05 0.04 0.05 0.07 0.08 0.07 0.08 0.07 0.06 0.04 0.05 0.05 0.05 0.04 0.02 0.02 0.02 0.01 0.03 0.05 0.06 0.06 0.02 0.01 0.01 0.02 0.01 0.02 0.03 0.03
0.07 0.11 0.14 0.19 0.26 0.18 0.11 0.09 0.08 0.05 0.06 0.07 0.05 0.04 0.04 0.04 0.05 0.06 0.05 0.06 0.06 0.05 0.05 0.04 0.03 0.03 0.03 0.02 0.03 0.02 0.02 0.04 0.08 0.09 0.07 0.04 0.02 0.01 0.02 0.01 0.01 0.02 0.03
0.11 0.12 0.13 0.19 0.33 0.25 0.12 0.08 0.06 0.05 0.04 0.04 0.05 0.05 0.03 0.03 0.05 0.06 0.06 0.06 0.05 0.04 0.03 0.03 0.03 0.03 0.02 0.02 0.02 0.02 0.03 0.04 0.08 0.08 0.06 0.07 0.07 0.05 0.02 0.01 0.01 0.02 0.03
0.08 0.08 0.08 0.11 0.26 0.25 0.15 0.09 0.06 0.06 0.05 0.04 0.04 0.05 0.03 0.03 0.04 0.05 0.05 0.05 0.03 0.02 0.02 0.03 0.04 0.04 0.03 0.03 0.03 0.02 0.04 0.04 0.03 0.04 0.03 0.05 0.10 0.06 0.03 0.02 0.01 0.01 0.01
0.04 0.04 0.06 0.08 0.12 0.17 0.14 0.10 0.09 0.08 0.07 0.05 0.05 0.05 0.04 0.03 0.02 0.04 0.06 0.06 0.03 0.02 0.02 0.02 0.05 0.05 0.04 0.04 0.03 0.03 0.02 0.03 0.04 0.02 0.02 0.03 0.04 0.05 0.04 0.02 0.01 0.01 0.01
0.04 0.05 0.06 0.08 0.09 0.13 0.14 0.12 0.11 0.10 0.08 0.05 0.03 0.05 0.04 0.03 0.03 0.04 0.04 0.04 0.03 0.05 0.06 0.05 0.08 0.05 0.05 0.04 0.03 0.04 0.02 0.02 0.03 0.03 0.02 0.02 0.02 0.03 0.04 0.06 0.04 0.02 0.01
0.04 0.05 0.06 0.07 0.08 0.10 0.10 0.08 0.08 0.10 0.08 0.05 0.03 0.03 0.03 0.03 0.04 0.05 0.06 0.07 0.05 0.07 0.06 0.04 0.05 0.05 0.06 0.04 0.06 0.08 0.05 0.02 0.02 0.02 0.02 0.02 0.04 0.03 0.05 0.07 0.08 0.08 0.05
0.04 0.05 0.05 0.07 0.07 0.06 0.08 0.10 0.09 0.11 0.10 0.07 0.05 0.07 0.03 0.03 0.04 0.04 0.08 0.07 0.06 0.08 0.06 0.05 0.06 0.09 0.08 0.04 0.05 0.10 0.11 0.11 0.07 0.03 0.02 0.02 0.03 0.03 0.04 0.03 0.04 0.08 0.09
0.03 0.04 0.04 0.07 0.07 0.08 0.11 0.11 0.12 0.14 0.13 0.12 0.10 0.09 0.05 0.03 0.04 0.07 0.08 0.08 0.09 0.06 0.07 0.08 0.07 0.08 0.08 0.05 0.03 0.06 0.10 0.13 0.12 0.08 0.05 0.03 0.02 0.03 0.03 0.04 0.04 0.04 0.06
0.02 0.02 0.03 0.07 0.09 0.10 0.12 0.10 0.09 0.09 0.10 0.10 0.09 0.08 0.07 0.05 0.05 0.05 0.06 0.10 0.10 0.07 0.10 0.06 0.06 0.07 0.09 0.06 0.04 0.03 0.04 0.07 0.09 0.13 0.09 0.05 0.02 0.02 0.03 0.03 0.04 0.05 0.04
0.03 0.02 0.02 0.05 0.09 0.08 0.09 0.12 0.13 0.13 0.14 0.13 0.10 0.12 0.10 0.08 0.06 0.04 0.05 0.08 0.08 0.07 0.09 0.07 0.09 0.06 0.07 0.06 0.05 0.04 0.03 0.04 0.04 0.08 0.12 0.11 0.07 0.04 0.04 0.03 0.04 0.04 0.04
0.05 0.04 0.04 0.06 0.09 0.11 0.15 0.21 0.13 0.15 0.17 0.16 0.15 0.13 0.08 0.06 0.06 0.06 0.07 0.08 0.06 0.07 0.08 0.06 0.07 0.06 0.06 0.06 0.05 0.04 0.04 0.03 0.03 0.04 0.06 0.08 0.07 0.04 0.02 0.02 0.02 0.04 0.03
MSLP
1008.35 1008.45 1008.74 1009.20 1009.75 1010.32 1010.82 1011.22 1011.49 1011.67 1011.79 1011.91 1012.08 1012.30 1012.58 1012.87 1013.14 1013.37 1013.52 1013.60 1013.65 1013.68 1013.73 1013.82 1013.97 1014.17 1014.40 1014.64 1014.87 1015.10 1015.31 1015.52 1015.74 1015.97 1016.21 1016.47 1016.73 1016.97 1017.19 1017.39 1017.57 1017.73 1017.90
1008.11 1008.38 1008.83 1009.42 1010.06 1010.66 1011.14 1011.49 1011.70 1011.83 1011.92 1012.04 1012.23 1012.50 1012.82 1013.16 1013.45 1013.67 1013.80 1013.85 1013.85 1013.84 1013.86 1013.94 1014.09 1014.30 1014.55 1014.81 1015.08 1015.33 1015.57 1015.81 1016.05 1016.31 1016.57 1016.83 1017.08 1017.30 1017.50 1017.67 1017.83 1017.98 1018.15
1007.87 1008.30 1008.91 1009.62 1010.34 1010.97 1011.46 1011.78 1011.95 1012.04 1012.11 1012.23 1012.44 1012.73 1013.07 1013.42 1013.70 1013.90 1014.00 1014.01 1013.97 1013.94 1013.95 1014.03 1014.18 1014.41 1014.67 1014.95 1015.24 1015.51 1015.78 1016.05 1016.33 1016.61 1016.90 1017.17 1017.42 1017.63 1017.81 1017.95 1018.09 1018.23 1018.40
1007.65 1008.23 1008.98 1009.80 1010.60 1011.27 1011.77 1012.08 1012.23 1012.30 1012.36 1012.48 1012.69 1012.99 1013.33 1013.65 1013.92 1014.08 1014.14 1014.12 1014.07 1014.03 1014.05 1014.15 1014.32 1014.56 1014.83 1015.11 1015.39 1015.67 1015.95 1016.24 1016.55 1016.88 1017.20 1017.50 1017.76 1017.97 1018.12 1018.25 1018.37 1018.50 1018.68
1007.49 1008.20 1009.06 1009.97 1010.84 1011.55 1012.06 1012.37 1012.52 1012.58 1012.65 1012.77 1012.98 1013.26 1013.58 1013.88 1014.11 1014.24 1014.28 1014.26 1014.21 1014.20 1014.25 1014.37 1014.57 1014.81 1015.07 1015.33 1015.58 1015.84 1016.11 1016.41 1016.74 1017.10 1017.46 1017.80 1018.08 1018.30 1018.46 1018.57 1018.68 1018.81 1018.99
1007.42 1008.22 1009.17 1010.15 1011.06 1011.81 1012.34 1012.65 1012.81 1012.88 1012.95 1013.07 1013.28 1013.54 1013.84 1014.11 1014.31 1014.43 1014.46 1014.46 1014.45 1014.48 1014.58 1014.74 1014.95 1015.19 1015.42 1015.63 1015.83 1016.04 1016.27 1016.56 1016.91 1017.30 1017.70 1018.08 1018.40 1018.64 1018.80 1018.91 1019.01 1019.14 1019.32
1007.45 1008.32 1009.32 1010.34 1011.28 1012.04 1012.58 1012.90 1013.07 1013.16 1013.24 1013.37 1013.58 1013.84 1014.11 1014.36 1014.55 1014.66 1014.71 1014.74 1014.79 1014.89 1015.04 1015.25 1015.48 1015.69 1015.87 1016.02 1016.14 1016.27 1016.45 1016.71 1017.05 1017.47 1017.91 1018.34 1018.70 1018.97 1019.15 1019.27 1019.36 1019.48 1019.66
1007.58 1008.48 1009.50 1010.53 1011.47 1012.23 1012.77 1013.10 1013.29 1013.39 1013.50 1013.65 1013.86 1014.12 1014.39 1014.63 1014.82 1014.94 1015.03 1015.11 1015.22 1015.38 1015.59 1015.83 1016.07 1016.26 1016.38 1016.44 1016.48 1016.52 1016.64 1016.85 1017.18 1017.61 1018.09 1018.57 1018.97 1019.28 1019.49 1019.61 1019.70 1019.81 1019.97
1007.77 1008.66 1009.68 1010.69 1011.61 1012.34 1012.87 1013.21 1013.42 1013.55 1013.69 1013.87 1014.11 1014.39 1014.67 1014.91 1015.11 1015.26 1015.38 1015.50 1015.67 1015.88 1016.13 1016.39 1016.62 1016.78 1016.85 1016.84 1016.79 1016.75 1016.80 1016.98 1017.29 1017.73 1018.24 1018.76 1019.21 1019.56 1019.80 1019.94 1020.02 1020.11 1020.26
1007.97 1008.85 1009.82 1010.79 1011.66 1012.37 1012.88 1013.22 1013.44 1013.61 1013.79 1014.02 1014.30 1014.61 1014.91 1015.17 1015.38 1015.55 1015.70 1015.85 1016.05 1016.29 1016.56 1016.83 1017.05 1017.17 1017.20 1017.13 1017.02 1016.93 1016.94 1017.08 1017.38 1017.83 1018.36 1018.91 1019.41 1019.80 1020.07 1020.23 1020.32 1020.40 1020.52
1008.16 1008.99 1009.91 1010.82 1011.63 1012.28 1012.76 1013.10 1013.35 1013.56 1013.79 1014.07 1014.40 1014.74 1015.08 1015.37 1015.60 1015.78 1015.94 1016.10 1016.30 1016.54 1016.81 1017.06 1017.26 1017.37 1017.37 1017.28 1017.15 1017.04 1017.03 1017.16 1017.46 1017.91 1018.46 1019.04 1019.57 1020.01 1020.31 1020.50 1020.60 1020.67 1020.76
1008.30 1009.08 1009.93 1010.76 1011.50 1012.10 1012.55 1012.88 1013.14 1013.39 1013.67 1014.01 1014.39 1014.78 1015.15 1015.47 1015.72 1015.91 1016.06 1016.21 1016.39 1016.61 1016.85 1017.08 1017.27 1017.37 1017.38 1017.30 1017.19 1017.10 1017.10 1017.24 1017.54 1018.00 1018.55 1019.14 1019.70 1020.17 1020.51 1020.73 1020.85 1020.93 1021.02
1008.39 1009.12 1009.90 1010.65 1011.32 1011.86 1012.27 1012.59 1012.87 1013.14 1013.47 1013.85 1014.27 1014.71 1015.12 1015.46 1015.73 1015.92 1016.06 1016.19 1016.34 1016.51 1016.72 1016.92 1017.10 1017.21 1017.25 1017.22 1017.17 1017.13 1017.17 1017.34 1017.66 1018.11 1018.65 1019.24 1019.80 1020.29 1020.66 1020.92 1021.08 1021.19 1021.28
1008.45 1009.13 1009.85 1010.53 1011.13 1011.62 1012.00 1012.31 1012.58 1012.87 1013.22 1013.62 1014.08 1014.54 1014.98 1015.35 1015.63 1015.83 1015.97 1016.08 1016.19 1016.33 1016.49 1016.68 1016.85 1016.99 1017.08 1017.12 1017.15 1017.19 1017.30 1017.50 1017.82 1018.25 1018.77 1019.32 1019.87 1020.36 1020.76 1021.06 1021.27 1021.42 1021.53
1008.49 1009.14 1009.81 1010.44 1010.99 1011.45 1011.80 1012.09 1012.36 1012.64 1012.98 1013.38 1013.84 1014.31 1014.76 1015.15 1015.46 1015.68 1015.83 1015.93 1016.03 1016.14 1016.28 1016.45 1016.63 1016.80 1016.95 1017.08 1017.19 1017.32 1017.49 1017.71 1018.03 1018.42 1018.89 1019.39 1019.89 1020.36 1020.78 1021.11 1021.38 1021.58 1021.74
1008.57 1009.20 1009.84 1010.44 1010.97 1011.40 1011.74 1012.01 1012.26 1012.52 1012.82 1013.19 1013.61 1014.05 1014.50 1014.90 1015.23 1015.49 1015.68 1015.81 1015.92 1016.04 1016.17 1016.34 1016.53 1016.74 1016.94 1017.15 1017.34 1017.54 1017.75 1017.99 1018.28 1018.61 1019.00 1019.42 1019.85 1020.28 1020.69 1021.05 1021.38 1021.64 1021.86
1008.68 1009.30 1009.93 1010.53 1011.05 1011.49 1011.83 1012.10 1012.32 1012.54 1012.78 1013.08 1013.43 1013.82 1014.24 1014.64 1015.00 1015.31 1015.56 1015.75 1015.90 1016.05 1016.21 1016.38 1016.59 1016.82 1017.07 1017.33 1017.58 1017.83 1018.06 1018.30 1018.54 1018.80 1019.09 1019.40 1019.74 1020.10 1020.48 1020.86 1021.23 1021.56 1021.84
1008.82 1009.45 1010.09 1010.69 1011.24 1011.70 1012.06 1012.33 1012.53 1012.70 1012.87 1013.07 1013.32 1013.64 1014.00 1014.40 1014.79 1015.15 1015.48 1015.75 1015.98 1016.18 1016.37 1016.57 1016.79 1017.04 1017.31 1017.59 1017.88 1018.14 1018.39 1018.60 1018.79 1018.96 1019.14 1019.33 1019.57 1019.85 1020.17 1020.54 1020.93 1021.31 1021.66
1008.98 1009.61 1010.25 1010.88 1011.46 1011.96 1012.36 1012.65 1012.85 1012.97 1013.05 1013.15 1013.30 1013.52 1013.81 1014.18 1014.59 1015.01 1015.42 1015.78 1016.10 1016.37 1016.60 1016.83 1017.05 1017.30 1017.58 1017.87 1018.16 1018.43 1018.67 1018.86 1018.99 1019.08 1019.16 1019.24 1019.36 1019.54 1019.79 1020.12 1020.51 1020.92 1021.32
1009.12 1009.73 1010.38 1011.02 1011.65 1012.20 1012.65 1012.98 1013.18 1013.27 1013.29 1013.29 1013.33 1013.45 1013.67 1013.99 1014.41 1014.87 1015.35 1015.81 1016.21 1016.55 1016.83 1017.07 1017.30 1017.54 1017.80 1018.08 1018.37 1018.64 1018.87 1019.04 1019.14 1019.17 1019.16 1019.14 1019.15 1019.23 1019.41 1019.67 1020.02 1020.43 1020.85
1009.22 1009.80 1010.42 1011.08 1011.73 1012.34 1012.85 1013.23 1013.46 1013.55 1013.53 1013.46 1013.40 1013.42 1013.56 1013.83 1014.23 1014.72 1015.26 1015.78 1016.25 1016.65 1016.97 1017.22 1017.45 1017.67 1017.91 1018.17 1018.46 1018.73 1018.97 1019.14 1019.23 1019.23 1019.17 1019.09 1019.02 1019.00 1019.08 1019.26 1019.55 1019.93 1020.34
1009.27 1009.79 1010.37 1011.01 1011.67 1012.32 1012.89 1013.33 1013.61 1013.73 1013.70 1013.59 1013.48 1013.42 1013.49 1013.70 1014.07 1014.56 1015.11 1015.67 1016.18 1016.62 1016.96 1017.23 1017.45 1017.65 1017.87 1018.12 1018.40 1018.69 1018.96 1019.16 1019.28 1019.29 1019.23 1019.11 1018.98 1018.89 1018.87 1018.97 1019.17 1019.48 1019.85
1009.28 1009.72 1010.23 1010.82 1011.47 1012.14 1012.75 1013.26 1013.61 1013.79 1013.79 1013.69 1013.54 1013.44 1013.45 1013.61 1013.93 1014.38 1014.93 1015.49 1016.01 1016.46 1016.81 1017.07 1017.28 1017.47 1017.68 1017.93 1018.23 1018.55 1018.86 1019.12 1019.29 1019.36 1019.33 1019.21 1019.06 1018.91 1018.82 1018.83 1018.94 1019.16 1019.47
1009.27 1009.63 1010.05 1010.56 1011.17 1011.83 1012.48 1013.04 1013.47 1013.71 1013.78 1013.72 1013.59 1013.48 1013.45 1013.56 1013.82 1014.22 1014.72 1015.25 1015.76 1016.19 1016.53 1016.79 1016.99 1017.18 1017.39 1017.65 1017.97 1018.33 1018.70 1019.02 1019.28 1019.41 1019.44 1019.36 1019.22 1019.05 1018.92 1018.85 1018.87 1019.01 1019.23
1009.28 1009.55 1009.88 1010.30 1010.84 1011.47 1012.12 1012.73 1013.22 1013.54 1013.70 1013.70 1013.62 1013.52 1013.48 1013.55 1013.75 1014.09 1014.53 1015.01 1015.47 1015.88 1016.20 1016.45 1016.65 1016.84 1017.06 1017.33 1017.67 1018.07 1018.49 1018.88 1019.21 1019.42 1019.52 1019.50 1019.40 1019.25 1019.09 1018.97 1018.93 1018.99 1019.14
1009.32 1009.52 1009.76 1010.09 1010.55 1011.12 1011.75 1012.37 1012.90 1013.31 1013.54 1013.63 1013.61 1013.55 1013.52 1013.57 1013.72 1014.00 1014.37 1014.78 1015.19 1015.56 1015.87 1016.11 1016.31 1016.51 1016.74 1017.02 1017.38 1017.79 1018.24 1018.68 1019.05 1019.34 1019.50 1019.56 1019.51 1019.39 1019.26 1019.13 1019.06 1019.07 1019.16
Thickness
5804 5800 5794 5792 5790 5788 5786 5784 5782 5780 5778 5776 5775 5774 5773 5771 5770 5769 5768 5767 5766 5765 5764 5763 5762 5761 5760 5759 5758 5758 5757 5756 5755 5754 5752 5751 5749 5748 5747 5746 5746 5744 5743
5809 5800 5794 5792 5789 5787 5785 5783 5781 5779 5777 5775 5773 5772 5771 5769 5768 5767 5766 5765 5764 5763 5762 5761 5761 5760 5759 5758 5757 5756 5755 5754 5753 5752 5751 5749 5747 5746 5745 5745 5744 5742 5741
5809 5800 5794 5791 5789 5786 5784 5782 5779 5777 5775 5773 5772 5770 5769 5768 5767 5766 5764 5763 5762 5761 5760 5760 5759 5759 5757 5756 5755 5755 5754 5753 5752 5751 5750 5747 5746 5744 5743 5742 5741 5740 5739
5809 5801 5795 5790 5787 5785 5782 5780 5778 5776 5774 5772 5770 5769 5768 5766 5765 5764 5763 5761 5760 5760 5759 5758 5758 5757 5756 5755 5754 5753 5753 5752 5751 5750 5749 5747 5745 5742 5741 5740 5739 5738 5737
5810 5801 5793 5789 5786 5783 5781 5778 5776 5774 5772 5771 5769 5768 5766 5765 5764 5762 5761 5760 5759 5758 5757 5756 5756 5755 5754 5753 5752 5752 5752 5751 5750 5750 5748 5745 5743 5740 5739 5738 5737 5737 5736
5809 5800 5791 5787 5784 5781 5779 5777 5775 5773 5771 5769 5768 5766 5765 5763 5762 5761 5759 5758 5757 5756 5755 5754 5754 5753 5752 5751 5751 5751 5751 5751 5750 5749 5747 5744 5741 5739 5738 5737 5736 5735 5734
5809 5799 5790 5785 5782 5779 5777 5775 5773 5771 5769 5767 5766 5765 5763 5762 5760 5759 5758 5756 5755 5754 5753 5752 5752 5751 5750 5750 5749 5749 5750 5750 5751 5749 5745 5742 5739 5738 5736 5735 5734 5733 5732
5810 5798 5788 5783 5780 5777 5775 5773 5771 5769 5768 5766 5764 5763 5761 5760 5759 5757 5756 5754 5753 5752 5751 5750 5750 5749 5749 5748 5748 5749 5749 5750 5751 5748 5744 5740 5738 5736 5735 5734 5732 5731 5731
5808 5795 5787 5782 5778 5775 5773 5771 5769 5767 5766 5764 5763 5762 5760 5758 5757 5755 5754 5753 5751 5750 5750 5749 5748 5748 5747 5747 5748 5748 5748 5749 5750 5747 5743 5738 5736 5735 5733 5732 5731 5730 5729
5806 5796 5788 5784 5779 5774 5771 5769 5767 5765 5764 5763 5761 5760 5759 5757 5756 5754 5753 5751 5750 5749 5748 5748 5747 5746 5746 5747 5747 5747 5748 5749 5750 5746 5741 5737 5735 5733 5732 5731 5730 5728 5727
5801 5796 5791 5786 5780 5776 5772 5769 5766 5764 5762 5761 5760 5759 5758 5757 5756 5754 5752 5750 5749 5748 5748 5747 5746 5745 5745 5746 5746 5747 5747 5749 5748 5744 5739 5736 5734 5732 5731 5730 5729 5727 5726
5795 5794 5792 5788 5782 5779 5775 5768 5766 5765 5762 5762 5761 5759 5758 5758 5757 5755 5751 5750 5749 5748 5747 5746 5745 5745 5745 5746 5746 5746 5747 5748 5747 5742 5738 5735 5733 5731 5730 5729 5728 5726 5725
5797 5793 5791 5787 5784 5780 5775 5769 5768 5767 5763 5763 5761 5760 5759 5758 5756 5754 5752 5749 5749 5748 5748 5746 5746 5746 5746 5747 5747 5747 5748 5748 5746 5742 5737 5734 5732 5730 5729 5728 5726 5725 5724
5796 5792 5790 5786 5782 5778 5774 5771 5769 5768 5765 5764 5761 5760 5759 5758 5757 5755 5753 5752 5751 5751 5750 5749 5748 5748 5748 5748 5748 5748 5748 5747 5745 5741 5736 5733 5731 5729 5728 5726 5725 5724 5723
5795 5790 5788 5783 5778 5775 5771 5769 5769 5768 5766 5764 5761 5760 5759 5758 5757 5756 5754 5754 5753 5752 5751 5750 5750 5748 5748 5748 5748 5747 5747 5745 5744 5740 5735 5732 5730 5729 5727 5725 5724 5723 5722
5795 5789 5785 5781 5776 5772 5768 5765 5766 5767 5765 5763 5761 5760 5759 5759 5758 5756 5754 5754 5754 5753 5752 5751 5750 5748 5748 5747 5747 5746 5745 5744 5742 5738 5734 5731 5729 5728 5726 5725 5723 5722 5721
5795 5789 5783 5778 5773 5769 5765 5763 5763 5764 5764 5763 5761 5759 5758 5758 5757 5756 5755 5754 5754 5753 5752 5751 5750 5749 5747 5747 5746 5746 5744 5743 5741 5739 5735 5732 5730 5728 5726 5725 5723 5722 5720
5795 5788 5783 5778 5771 5766 5763 5761 5762 5763 5763 5762 5760 5758 5757 5756 5756 5755 5754 5754 5754 5753 5752 5750 5749 5747 5746 5746 5745 5745 5744 5742 5741 5739 5737 5734 5732 5729 5727 5725 5723 5721 5720
5796 5789 5782 5777 5770 5764 5761 5759 5759 5760 5760 5760 5758 5757 5755 5755 5754 5753 5754 5754 5753 5753 5752 5751 5749 5747 5744 5744 5744 5744 5743 5742 5741 5741 5739 5737 5734 5731 5729 5726 5724 5722 5721
5796 5789 5782 5776 5770 5764 5760 5756 5756 5756 5757 5757 5757 5756 5754 5754 5753 5753 5752 5752 5753 5752 5751 5749 5747 5746 5744 5743 5744 5744 5744 5743 5742 5741 5740 5738 5736 5733 5731 5728 5725 5723 5722
5794 5787 5781 5775 5770 5764 5758 5754 5751 5750 5752 5754 5755 5754 5753 5752 5752 5751 5752 5752 5752 5750 5749 5748 5746 5743 5742 5744 5740 5737 5741 5743 5742 5741 5741 5740 5737 5736 5734 5731 5728 5726 5724
5791 5786 5781 5775 5770 5765 5761 5757 5754 5752 5752 5754 5754 5754 5752 5751 5751 5751 5750 5750 5750 5748 5747 5747 5745 5741 5741 5743 5738 5731 5728 5731 5737 5742 5740 5739 5739 5737 5735 5733 5731 5729 5727
5791 5786 5782 5776 5772 5767 5762 5757 5753 5750 5750 5749 5749 5750 5751 5750 5750 5750 5749 5749 5748 5747 5745 5745 5744 5741 5737 5740 5742 5734 5725 5721 5728 5735 5739 5739 5738 5737 5736 5736 5734 5732 5729
5793 5789 5783 5777 5772 5767 5763 5757 5751 5747 5745 5746 5748 5748 5749 5749 5748 5748 5748 5747 5747 5746 5745 5744 5744 5742 5739 5735 5739 5740 5737 5734 5726 5723 5731 5737 5739 5737 5737 5737 5736 5733 5731
5795 5790 5784 5778 5771 5767 5763 5758 5753 5749 5748 5748 5748 5747 5747 5748 5748 5747 5747 5746 5745 5745 5744 5743 5743 5741 5739 5736 5735 5736 5736 5736 5734 5726 5722 5728 5733 5736 5737 5737 5736 5733 5731
5795 5790 5784 5777 5771 5767 5763 5759 5755 5751 5748 5746 5745 5744 5744 5745 5746 5746 5745 5744 5743 5743 5742 5742 5741 5739 5738 5736 5735 5735 5734 5731 5730 5728 5724 5724 5725 5731 5736 5736 5735 5733 5730